Theta_e
318 317 318 318 318 317 316 316 319 319 319 319 320 321 321 318 317 319 316 314 315 314
318 320 319 320 320 317 319 317 317 318 318 319 320 320 321 319 319 319 315 318 315 314
317 317 320 320 320 318 317 319 318 317 318 318 319 318 319 319 321 319 315 315 312 314
317 315 316 318 318 316 316 316 316 317 318 317 318 317 317 320 318 319 319 318 317 316
316 316 315 317 319 318 316 317 319 319 316 316 317 315 313 317 316 317 316 315 317 317
317 316 318 317 319 315 317 316 316 318 317 316 314 311 314 317 316 316 317 317 317 316
315 315 312 316 320 317 317 315 319 318 318 315 313 309 314 318 318 317 318 318 319 319
314 317 314 316 321 319 319 319 319 316 319 317 313 311 314 313 313 319 319 319 317 317
312 316 313 317 318 319 315 319 319 317 314 318 312 304 305 307 311 312 317 317 318 317
312 315 315 316 317 317 317 320 319 319 313 317 318 303 302 304 306 310 312 314 317 318
313 314 314 316 317 320 315 316 321 319 316 314 317 304 301 302 311 311 312 315 315 318
313 313 315 315 316 320 322 318 319 319 318 315 316 304 301 305 315 311 311 312 313 315
315 315 315 316 317 319 319 321 318 314 319 314 319 306 301 305 315 315 314 315 315 307
315 312 314 316 319 315 317 317 320 319 320 321 318 318 301 300 316 314 313 313 313 316
Wind_Speed
6 5 5 5 5 5 6 6 6 6 7 6 6 7 7 5 5 4 4 8 7 6
5 6 5 5 4 4 4 5 5 7 7 6 7 7 8 5 4 3 2 7 9 7
5 6 6 6 6 5 5 5 6 7 8 6 7 7 8 7 5 5 2 3 5 5
6 6 7 8 6 5 5 6 5 7 7 6 7 7 7 6 6 6 5 6 6 6
6 4 7 10 9 7 7 7 6 6 6 6 5 5 6 6 6 6 7 8 8 9
8 6 10 10 10 6 6 5 6 6 6 5 5 3 5 4 5 5 6 7 8 9
11 7 5 11 12 8 4 4 6 5 5 4 2 1 4 4 3 4 5 5 6 8
10 10 5 11 11 6 6 5 6 4 5 5 4 2 3 3 6 4 3 4 5 7
10 11 5 11 9 5 5 6 6 5 5 5 4 2 2 4 2 4 5 3 3 4
11 11 6 10 12 7 4 6 6 5 4 6 5 5 4 3 2 3 3 3 2 2
9 11 8 6 10 9 5 5 7 5 6 5 6 6 7 5 3 3 3 3 3 3
7 9 10 8 9 7 8 7 6 5 6 7 8 9 8 6 4 2 3 2 1 3
8 10 10 8 9 8 8 7 5 5 8 7 8 8 9 8 6 5 4 4 1 1
5 5 7 9 7 4 8 7 7 8 7 7 8 8 9 9 8 7 5 5 3 2
Wind_Direction
312 310 314 330 316 308 312 315 316 316 313 329 338 338 334 325 321 310 328 329 317 302
303 306 314 313 296 304 301 313 320 315 311 338 345 341 333 332 340 340 325 329 330 325
290 286 281 278 289 294 291 295 308 311 311 327 337 349 344 326 334 336 344 328 315 315
280 270 276 276 270 266 276 279 302 316 301 313 330 348 343 349 339 347 352 1 358 8
267 270 264 266 275 275 273 277 292 294 295 310 330 344 346 354 354 1 18 13 13 17
267 250 264 278 271 280 277 265 282 278 283 307 331 341 338 347 1 32 31 24 25 21
278 253 233 275 281 259 251 242 261 258 271 285 269 307 315 339 17 353 22 25 26 27
279 286 257 268 276 275 255 234 255 246 245 258 262 229 329 348 331 342 18 28 35 48
289 283 231 276 264 231 252 235 231 234 256 231 251 203 225 297 340 341 326 40 27 50
278 282 267 261 261 242 261 275 226 230 225 246 247 200 237 219 338 313 313 297 251 151
276 282 275 277 274 265 204 235 248 225 216 223 250 213 223 195 262 302 316 319 313 4
285 284 286 275 252 271 227 202 226 236 231 218 240 204 224 224 237 254 282 279 348 227
297 294 292 271 260 270 256 262 187 238 234 235 252 190 205 204 245 245 253 248 297 214
303 277 291 311 277 226 254 256 247 235 227 233 239 242 196 194 234 243 238 244 230 139